�N����,����,�~����,�C��,���x,�C��,����,���ϕ���,�ő�u�ԕ���,�ő厞����,���˗�,�I�_���x,�n�����x,�ő啗���N��,DTYPE
"21/05/30","00:10",0.0,16.2,86.1,1004.1,305.5,1.2,2.1,326.6,0.00,13.9,130.0,"00:00:24",1
"21/05/30","00:20",0.0,16.2,86.2,1004.3,332.6,1.2,2.2,338.6,0.00,13.9,130.0,"00:13:04",1
"21/05/30","00:30",0.0,16.0,86.3,1004.1,313.6,0.5,1.3,335.2,0.00,13.8,130.0,"00:25:28",1
"21/05/30","00:40",0.0,15.8,86.6,1004.1,323.6,1.1,1.6,323.3,0.00,13.6,130.0,"00:34:32",1
"21/05/30","00:50",0.0,15.6,87.0,1004.1,327.8,1.3,2.0,336.3,0.00,13.5,130.0,"00:45:36",1
"21/05/30","01:00",0.0,15.3,87.5,1004.1,295.9,1.1,2.5,324.5,0.00,13.3,130.0,"00:54:24",1
"21/05/30","01:10",0.0,15.2,88.0,1003.8,292.0,0.6,1.6,277.4,0.00,13.3,130.0,"01:08:16",1
"21/05/30","01:20",0.0,15.1,88.2,1003.8,283.3,0.8,1.2,271.6,0.00,13.2,130.0,"01:18:40",1
"21/05/30","01:30",0.0,15.0,88.5,1003.8,279.6,1.0,1.3,267.2,0.00,13.2,130.0,"01:28:00",1
"21/05/30","01:40",0.0,15.0,88.9,1004.1,281.2,1.1,1.7,314.4,0.00,13.2,130.0,"01:31:28",1
"21/05/30","01:50",0.0,14.9,89.1,1003.8,309.1,1.1,1.8,317.3,0.00,13.2,130.0,"01:40:08",1
"21/05/30","02:00",0.0,14.8,89.4,1003.8,306.1,0.8,1.8,335.0,0.00,13.1,130.0,"01:56:56",1
"21/05/30","02:10",0.0,14.7,89.7,1003.8,286.4,1.0,1.7,318.2,0.00,13.1,130.0,"02:04:48",1
"21/05/30","02:20",0.0,14.6,89.9,1003.6,287.6,1.0,1.8,324.3,0.00,13.0,130.0,"02:19:20",1
"21/05/30","02:30",0.0,14.4,90.1,1004.1,310.2,1.2,1.8,329.5,0.00,12.8,130.0,"02:20:48",1
"21/05/30","02:40",0.0,14.2,90.4,1004.1,317.6,1.2,1.7,312.1,0.00,12.7,130.0,"02:30:24",1
"21/05/30","02:50",0.0,14.0,90.5,1004.1,283.3,0.7,0.9,308.3,0.00,12.5,130.0,"02:40:56",1
"21/05/30","03:00",0.0,13.8,90.7,1004.1,298.9,0.7,1.4,322.7,0.00,12.3,130.0,"02:55:36",1
"21/05/30","03:10",0.0,13.9,91.1,1003.8,325.7,0.7,2.0,341.0,0.00,12.5,130.0,"03:08:40",1
"21/05/30","03:20",0.0,14.0,91.1,1004.1,312.5,1.5,1.9,313.4,0.00,12.6,130.0,"03:13:04",1
"21/05/30","03:30",0.0,14.1,91.5,1004.1,332.3,1.2,2.4,332.7,0.00,12.8,130.0,"03:28:16",1
"21/05/30","03:40",0.0,14.1,91.8,1003.8,331.6,1.3,2.1,325.3,0.00,12.8,130.0,"03:35:04",1
"21/05/30","03:50",0.0,14.3,92.0,1004.1,328.0,1.7,4.2,329.3,0.00,13.1,130.0,"03:45:20",1
"21/05/30","04:00",0.0,14.4,91.9,1004.1,322.9,1.8,3.1,338.2,0.00,13.1,130.0,"03:50:16",1
"21/05/30","04:10",0.0,14.1,92.0,1004.1,321.9,1.3,2.6,333.0,0.00,12.9,130.0,"04:04:00",1
"21/05/30","04:20",0.0,13.8,92.1,1004.3,281.7,0.6,1.1,309.0,0.00,12.6,130.0,"04:10:08",1
"21/05/30","04:30",0.0,13.7,92.4,1004.3,310.3,1.2,2.1,300.6,0.00,12.5,130.0,"04:28:16",1
"21/05/30","04:40",0.0,13.7,92.5,1004.3,317.4,1.2,1.8,329.3,0.00,12.5,130.0,"04:34:00",1
"21/05/30","04:50",0.0,13.8,92.7,1004.3,314.0,1.2,2.8,321.7,0.00,12.7,130.0,"04:48:08",1
"21/05/30","05:00",0.0,14.0,92.6,1004.5,325.9,1.5,2.1,342.8,0.00,12.9,130.0,"04:50:40",1
"21/05/30","05:10",0.0,14.1,92.7,1004.5,297.7,1.2,2.2,330.7,0.00,13.0,130.0,"05:06:56",1
"21/05/30","05:20",0.0,14.2,92.7,1005.0,294.9,1.0,1.6,314.1,0.00,13.1,130.0,"05:14:40",1
"21/05/30","05:30",0.0,14.4,92.7,1004.8,326.1,0.7,1.4,296.3,0.00,13.3,130.0,"05:24:08",1
"21/05/30","05:40",0.0,14.5,92.7,1004.8,289.7,0.6,1.0,302.2,0.00,13.4,130.0,"05:33:20",1
"21/05/30","05:50",0.0,14.5,92.7,1004.8,272.5,0.7,1.0,257.5,0.00,13.4,130.0,"05:43:04",1
"21/05/30","06:00",0.0,14.6,92.7,1005.0,286.8,0.8,1.8,320.8,0.02,13.5,130.0,"05:50:02",1
"21/05/30","06:10",0.0,15.0,92.6,1005.2,314.7,1.0,1.7,332.2,0.02,13.9,130.0,"06:03:44",1
"21/05/30","06:20",0.0,15.2,92.2,1005.0,330.2,1.3,2.4,340.6,0.04,14.0,130.0,"06:19:04",1
"21/05/30","06:30",0.0,15.9,91.7,1005.2,277.6,1.0,2.1,310.2,0.05,14.6,130.0,"06:22:40",1
"21/05/30","06:40",0.0,16.5,91.0,1005.2,246.3,0.6,2.0,252.5,0.07,15.1,130.0,"06:30:56",1
"21/05/30","06:50",0.0,16.9,89.7,1005.5,193.1,0.3,1.1,127.6,0.09,15.2,130.0,"06:49:52",1
"21/05/30","07:00",0.0,17.4,87.3,1005.5,210.5,0.3,0.8,149.3,0.11,15.3,130.0,"06:50:48",1
"21/05/30","07:10",0.0,18.0,85.6,1005.2,254.7,0.5,1.0,211.9,0.13,15.6,130.0,"07:01:28",1
"21/05/30","07:20",0.0,18.9,81.9,1005.5,297.0,0.5,1.1,262.6,0.16,15.8,130.0,"07:16:32",1
"21/05/30","07:30",0.0,19.5,77.2,1005.7,70.1,0.5,1.4,133.4,0.18,15.4,130.0,"07:29:44",1
"21/05/30","07:40",0.0,19.8,73.4,1005.5,290.5,0.6,1.4,303.9,0.21,14.9,130.0,"07:38:40",1
"21/05/30","07:50",0.0,20.4,70.2,1005.2,321.3,0.5,1.3,343.9,0.23,14.8,130.0,"07:43:20",1
"21/05/30","08:00",0.0,20.9,67.4,1004.8,317.4,0.8,1.4,349.6,0.26,14.7,130.0,"07:53:20",1
"21/05/30","08:10",0.0,21.4,65.5,1004.8,347.0,0.6,1.6,194.8,0.28,14.7,130.0,"08:08:40",1
"21/05/30","08:20",0.0,22.0,64.6,1004.5,163.1,0.7,1.4,167.8,0.31,15.1,130.0,"08:15:36",1
"21/05/30","08:30",0.0,21.5,63.1,1004.8,174.7,1.5,2.8,124.4,0.33,14.2,130.0,"08:22:00",1
"21/05/30","08:40",0.0,22.3,62.1,1003.8,180.7,1.0,2.2,189.8,0.35,14.7,130.0,"08:32:56",1
"21/05/30","08:50",0.0,22.8,57.9,1004.1,179.0,0.8,2.5,218.0,0.38,14.1,130.0,"08:49:20",1
"21/05/30","09:00",0.0,22.8,56.3,1003.8,174.4,1.0,1.8,204.5,0.40,13.7,130.0,"08:50:32",1
"21/05/30","09:10",0.0,23.2,54.7,1003.6,172.2,1.0,3.1,221.8,0.42,13.6,130.0,"09:09:52",1
"21/05/30","09:20",0.0,23.3,53.9,1003.6,188.4,1.5,3.3,221.7,0.44,13.5,130.0,"09:14:08",1
"21/05/30","09:30",0.0,23.9,51.6,1002.6,271.1,0.8,3.2,354.6,0.46,13.4,130.0,"09:26:48",1
"21/05/30","09:40",0.0,24.3,50.5,1002.6,300.4,0.8,2.1,227.6,0.48,13.4,130.0,"09:37:04",1
"21/05/30","09:50",0.0,24.5,47.7,1002.6,265.0,1.2,2.9,231.6,0.49,12.7,130.0,"09:41:28",1
"21/05/30","10:00",0.0,24.6,47.0,1002.6,296.4,1.3,3.3,226.4,0.51,12.6,130.0,"09:53:28",1
"21/05/30","10:10",0.0,24.8,45.9,1002.4,254.0,1.5,3.9,230.6,0.53,12.4,130.0,"10:04:08",1
"21/05/30","10:20",0.0,25.0,44.6,1002.2,251.8,1.7,3.5,302.0,0.54,12.2,130.0,"10:11:04",1
"21/05/30","10:30",0.0,25.1,44.5,1001.9,308.0,1.7,4.2,337.1,0.56,12.2,130.0,"10:22:32",1
"21/05/30","10:40",0.4,25.0,44.8,1002.4,283.7,2.3,12.3,78.7,0.56,12.2,130.0,"10:36:50",1
"21/05/30","10:50",0.0,25.1,45.0,1002.2,261.4,2.3,7.9,350.3,0.57,12.4,130.0,"10:44:40",1
"21/05/30","11:00",0.0,24.9,44.5,1002.4,331.7,2.0,6.6,344.0,0.53,12.0,130.0,"10:58:48",1
"21/05/30","11:10",0.0,25.6,47.0,1002.2,294.2,1.1,2.4,353.6,0.51,13.5,130.0,"11:03:04",1
"21/05/30","11:20",0.0,25.4,43.9,1002.4,295.0,2.0,4.2,352.0,0.56,12.3,130.0,"11:19:44",1
"21/05/30","11:30",0.0,25.7,43.4,1002.2,285.9,1.7,4.4,337.0,0.54,12.4,130.0,"11:23:20",1
"21/05/30","11:40",0.0,25.5,43.5,1002.2,262.5,2.0,4.0,345.3,0.53,12.2,130.0,"11:32:16",1
"21/05/30","11:50",0.0,25.9,44.0,1001.9,293.7,2.0,3.9,247.7,0.62,12.8,130.0,"11:44:16",1
"21/05/30","12:00",0.0,26.5,43.9,1001.9,266.1,1.6,5.0,2.9,0.61,13.3,130.0,"11:52:16",1
"21/05/30","12:10",0.0,26.3,40.4,1001.7,283.1,2.0,4.8,324.4,0.61,11.8,130.0,"12:06:08",1
"21/05/30","12:20",0.0,26.0,41.3,1001.9,291.4,2.2,5.5,209.1,0.47,11.9,130.0,"12:15:52",1
"21/05/30","12:30",0.0,26.5,41.8,1001.5,339.1,1.8,4.5,347.3,0.58,12.5,130.0,"12:29:36",1
"21/05/30","12:40",0.0,26.3,40.6,1001.9,342.9,2.3,5.5,340.8,0.55,11.9,130.0,"12:36:32",1
"21/05/30","12:50",0.0,26.3,39.9,1001.7,311.5,2.2,5.5,339.9,0.48,11.6,130.0,"12:48:40",1
"21/05/30","13:00",0.0,26.8,39.5,1001.5,313.3,2.1,5.2,26.9,0.62,11.9,130.0,"12:54:16",1
"21/05/30","13:10",0.0,27.1,39.3,1001.5,284.8,2.2,5.9,344.3,0.68,12.1,130.0,"13:01:04",1
"21/05/30","13:20",0.0,26.3,37.6,1001.5,292.5,1.6,4.2,339.8,0.26,10.7,130.0,"13:19:44",1
"21/05/30","13:30",0.0,26.5,38.9,1001.5,309.2,2.8,6.7,348.1,0.58,11.4,130.0,"13:25:52",1
"21/05/30","13:40",0.0,26.4,39.0,1001.5,332.8,1.8,4.4,347.7,0.42,11.4,130.0,"13:34:48",1
"21/05/30","13:50",0.0,27.2,37.8,1001.2,308.1,1.6,4.4,233.0,0.58,11.6,130.0,"13:48:48",1
"21/05/30","14:00",0.0,27.2,37.3,1001.5,233.6,1.3,2.7,306.2,0.38,11.4,130.0,"13:50:16",1
"21/05/30","14:10",0.0,27.7,36.1,1001.9,285.9,1.8,4.2,335.2,0.60,11.4,130.0,"14:09:28",1
"21/05/30","14:20",0.0,28.2,36.5,1001.7,259.9,2.0,4.3,209.6,0.58,12.0,130.0,"14:16:24",1
"21/05/30","14:30",0.0,27.9,36.9,1001.7,302.7,2.0,5.2,328.5,0.58,11.9,130.0,"14:24:00",1
"21/05/30","14:40",0.0,27.4,35.6,1001.5,336.3,2.2,4.4,356.8,0.50,10.9,130.0,"14:36:56",1
"21/05/30","14:50",0.0,27.6,36.1,1001.5,315.8,2.0,4.9,334.4,0.53,11.3,130.0,"14:48:32",1
"21/05/30","15:00",0.0,28.0,36.4,1001.2,352.8,2.2,5.4,347.4,0.50,11.8,130.0,"14:57:36",1
"21/05/30","15:10",0.0,27.4,35.5,1001.0,342.0,3.2,6.2,355.9,0.48,10.9,130.0,"15:05:52",1
"21/05/30","15:20",0.0,27.0,36.5,1001.0,338.4,3.2,6.6,350.9,0.40,10.9,130.0,"15:14:00",1
"21/05/30","15:30",0.0,27.4,39.8,1000.8,329.1,2.0,4.9,328.2,0.34,12.6,130.0,"15:22:40",1
"21/05/30","15:40",0.0,28.1,35.6,1001.0,298.0,1.2,3.5,339.7,0.42,11.5,130.0,"15:35:28",1
"21/05/30","15:50",0.0,28.3,35.0,1001.2,300.4,1.5,4.3,331.6,0.38,11.4,130.0,"15:48:56",1
"21/05/30","16:00",0.0,27.6,35.3,1001.0,316.8,2.5,5.5,332.5,0.35,10.9,130.0,"15:52:32",1
"21/05/30","16:10",0.0,27.3,36.0,1001.0,285.2,2.0,3.6,333.6,0.34,11.0,130.0,"16:08:24",1
"21/05/30","16:20",0.0,27.2,38.5,1001.0,327.0,2.6,7.5,347.2,0.33,11.9,130.0,"16:15:04",1
"21/05/30","16:30",0.0,27.0,38.7,1001.2,351.5,2.5,5.0,346.3,0.30,11.8,130.0,"16:23:36",1
"21/05/30","16:40",0.0,26.7,38.8,1000.8,2.4,2.7,6.3,341.3,0.27,11.6,130.0,"16:38:08",1
"21/05/30","16:50",0.0,26.1,43.0,1001.2,341.5,3.4,6.0,346.3,0.24,12.6,130.0,"16:47:20",1
"21/05/30","17:00",0.0,25.9,41.7,1001.7,1.9,2.6,5.6,2.6,0.20,11.9,130.0,"16:56:24",1
"21/05/30","17:10",0.0,25.6,43.6,1001.5,357.8,2.7,5.8,344.1,0.04,12.4,130.0,"17:05:36",1
"21/05/30","17:20",0.0,25.1,42.5,1001.7,3.3,2.7,6.0,356.0,0.02,11.5,130.0,"17:19:36",1
"21/05/30","17:30",0.0,25.0,43.2,1002.2,355.5,2.2,5.1,340.0,0.01,11.7,130.0,"17:29:20",1
"21/05/30","17:40",0.0,24.5,43.4,1002.4,346.4,3.0,8.0,337.0,0.01,11.3,130.0,"17:37:52",1
"21/05/30","17:50",0.0,24.1,45.6,1002.6,336.6,3.2,6.3,334.4,0.01,11.7,130.0,"17:46:56",1
"21/05/30","18:00",0.0,24.0,46.1,1002.6,352.5,2.2,5.0,341.4,0.01,11.8,130.0,"17:50:16",1
"21/05/30","18:10",0.0,23.5,47.1,1002.9,339.7,3.0,7.8,333.8,0.01,11.6,130.0,"18:00:24",1
"21/05/30","18:20",0.0,23.1,46.3,1003.1,348.2,3.4,8.3,339.9,0.00,11.0,130.0,"18:10:48",1
"21/05/30","18:30",0.0,22.6,46.3,1003.4,349.8,3.4,6.0,332.2,0.00,10.5,130.0,"18:22:48",1
"21/05/30","18:40",0.0,22.1,48.7,1003.6,338.7,3.2,6.8,334.9,0.00,10.8,130.0,"18:34:08",1
"21/05/30","18:50",0.0,21.8,50.9,1003.6,333.6,2.7,4.7,353.3,0.00,11.2,130.0,"18:40:16",1
"21/05/30","19:00",0.0,21.4,53.7,1004.1,339.6,2.8,4.9,334.6,0.00,11.7,130.0,"18:51:12",1
"21/05/30","19:10",0.0,21.0,56.9,1004.3,354.7,2.2,4.7,3.2,0.00,12.2,130.0,"19:08:52",1
"21/05/30","19:20",0.0,20.6,58.2,1004.5,357.1,2.2,4.4,353.3,0.00,12.1,130.0,"19:17:44",1
"21/05/30","19:30",0.0,20.3,59.8,1004.5,343.7,3.0,5.5,339.5,0.00,12.3,130.0,"19:24:48",1
"21/05/30","19:40",0.0,20.0,61.0,1004.5,342.3,2.5,5.1,339.7,0.00,12.3,130.0,"19:31:20",1
"21/05/30","19:50",0.0,19.7,62.3,1005.0,359.2,1.7,3.5,342.0,0.00,12.3,130.0,"19:40:48",1
"21/05/30","20:00",0.0,19.3,63.4,1005.2,347.4,0.6,1.9,348.2,0.00,12.2,130.0,"19:59:36",1
"21/05/30","20:10",0.0,19.3,63.7,1005.5,28.8,0.8,1.6,114.3,0.00,12.3,130.0,"20:08:24",1
"21/05/30","20:20",0.0,19.2,63.8,1005.7,3.9,1.7,4.0,358.7,0.00,12.2,130.0,"20:18:56",1
"21/05/30","20:30",0.0,18.9,65.2,1005.7,332.5,2.3,4.5,340.7,0.00,12.3,130.0,"20:20:08",1
"21/05/30","20:40",0.0,18.4,66.6,1006.0,331.9,1.8,3.3,303.5,0.00,12.1,130.0,"20:31:52",1
"21/05/30","20:50",0.0,18.1,67.8,1006.2,333.3,2.5,4.7,337.6,0.00,12.1,130.0,"20:47:04",1
"21/05/30","21:00",0.0,17.9,68.6,1006.2,336.3,2.5,3.7,322.8,0.00,12.1,130.0,"20:53:44",1
"21/05/30","21:10",0.0,17.7,69.1,1006.4,337.7,2.5,4.4,335.1,0.00,12.0,130.0,"21:09:36",1
"21/05/30","21:20",0.0,17.5,69.7,1006.4,338.0,2.6,4.7,339.3,0.00,11.9,130.0,"21:17:36",1
"21/05/30","21:30",0.0,17.2,70.3,1006.7,333.5,2.1,3.9,346.9,0.00,11.8,130.0,"21:21:44",1
"21/05/30","21:40",0.0,16.9,70.6,1006.9,312.4,1.5,2.1,323.9,0.00,11.6,130.0,"21:32:32",1
"21/05/30","21:50",0.0,16.8,71.1,1006.4,307.2,1.7,3.7,316.1,0.00,11.6,130.0,"21:41:44",1
"21/05/30","22:00",0.0,16.7,71.5,1006.7,320.2,1.8,3.2,342.7,0.00,11.6,130.0,"21:54:32",1
"21/05/30","22:10",0.0,16.7,71.8,1006.7,307.9,1.8,4.1,330.8,0.00,11.6,130.0,"22:04:08",1
"21/05/30","22:20",0.0,16.5,72.3,1006.9,322.4,2.1,3.3,330.3,0.00,11.5,130.0,"22:10:02",1
"21/05/30","22:30",0.0,16.4,73.0,1006.7,327.9,3.1,5.0,334.1,0.00,11.6,130.0,"22:28:08",1
"21/05/30","22:40",0.0,16.7,72.1,1007.1,328.7,4.1,5.7,333.4,0.00,11.7,130.0,"22:34:40",1
"21/05/30","22:50",0.0,16.8,71.1,1007.1,326.8,3.4,5.1,340.1,0.00,11.6,130.0,"22:40:48",1
"21/05/30","23:00",0.0,16.4,72.1,1006.9,335.5,2.1,3.7,332.4,0.00,11.4,130.0,"22:51:36",1
"21/05/30","23:10",0.0,15.8,73.6,1006.9,340.8,1.6,2.9,343.7,0.00,11.1,130.0,"23:07:44",1
"21/05/30","23:20",0.0,15.4,75.1,1007.1,331.0,1.5,2.2,336.3,0.00,11.1,130.0,"23:11:12",1
"21/05/30","23:30",0.0,15.2,76.8,1006.7,342.3,1.3,2.6,353.9,0.00,11.2,130.0,"23:25:44",1
"21/05/30","23:40",0.0,15.4,77.5,1006.4,340.8,1.8,3.5,344.0,0.00,11.5,130.0,"23:35:04",1
"21/05/30","23:50",0.0,15.3,78.0,1006.9,330.8,2.0,3.3,338.3,0.00,11.5,130.0,"23:41:12",1
"21/05/30","24:00",0.0,15.1,78.6,1007.1,332.1,2.1,3.1,337.0,0.00,11.5,130.0,"23:58:24",1
